Location: Unspecified
(0.0000°N, 0.0000°E)
Time: 17:56:37
(UTC+00:00)

N. Korean satellite - Pass Details

Date: 25 June 2022
Orbit: 433 x 477 km, 97.3° (Epoch: 26 June)

Event Time Altitude Azimuth Distance (km) Brightness Sun altitude
Rises 04:07:19 0° 40° (NE) 2,404 11.1 -26.3°
Reaches altitude 10° 04:09:58 10° 65° (ENE) 1,546 10.1 -25.7°
Maximum altitude 04:11:56 15° 101° (ESE) 1,284 9.3 -25.2°
Drops below altitude 10° 04:13:55 10° 138° (SE) 1,563 9.3 -24.8°
Enters shadow 04:14:04 - 140° (SE) 1,603 9.3 -24.8°
